Regional Weather Roundup
Issued by NWS Burlington, VT

Current Version | Previous Version | Text Only | Print | Product List | Glossary Off
Versions: 1 2 3 4 5 6 7 8 9 10 11 12 13 14 15 16 17 18 19 20 21 22 23 24 25 26 27 28 29 30 31 32 33 34 35 36 37 38 39 40 41 42 43 44 45 46 47 48 49 50

000
ASUS41 KBTV 190830
RWRBTV
VERMONT REGIONAL WEATHER ROUNDUP
NATIONAL WEATHER SERVICE BURLINGTON VT
400 AM EDT SAT AUG 19 2017

NOTE: "FAIR" INDICATES FEW OR NO CLOUDS BELOW 12,000 FEET WITH NO
SIGNIFICANT WEATHER AND/OR OBSTRUCTIONS TO VISIBILITY.

* THESE REPORTS ARE NOT UNDER NWS QUALITY CONTROL AND/OR DO NOT
  REPORT WEATHER SUCH AS PRECIPITATION AND FOG.

VTZ001>019-190900-
_____VERMONT_____


CITY           SKY/WX    TMP DP  RH WIND       PRES   REMARKS
BURLINGTON     CLOUDY    69  68  96 NE3       29.73S
MONTPELIER     CLOUDY    64  64 100 CALM      29.81S
MORRISVILLE    CLOUDY    65  64  97 CALM      29.77F
ST. JOHNSBURY*   N/A     64  64 100 MISG      29.77S
LYNDONVILLE*   RAIN      63  62  97 CALM      29.81R
MIDDLEBURY*    MOCLDY    69  67  95 CALM      29.75S
RUTLAND*       MOCLDY    66  65  96 E3        29.78S
SPRINGFIELD    CLOUDY    65  64  97 CALM      29.77S FOG
HIGHGATE*      CLOUDY    68  68  99 CALM      29.72S
NEWPORT*       CLOUDY    64  64  97 S5        29.77S
BENNINGTON     CLOUDY    68  66  93 CALM      29.79S
SUTTON*          N/A     63 N/A N/A MISG        N/A
ISLAND POND*     N/A     63 N/A N/A NE1         N/A
GALLUP MILLS*    N/A     61 N/A N/A MISG        N/A
UNION VILLAGE*   N/A     63 N/A N/A MISG        N/A
MT. MANSFIELD*   N/A     61 N/A N/A W25         N/A

_____LAKE CHAMPLAIN_____


CITY           SKY/WX    TMP DP  RH WIND       PRES   REMARKS
BURTON ISLAND*   N/A     72  68  88 SW6         N/A
COLCHESTER RF*   N/A     72  70  94 S3          N/A
DIAMOND ISL*     N/A     72  70  94 W1          N/A

$$

NYZ007-026>031-035-052-083-087-190900-
_____NORTHERN NEW YORK_____


CITY           SKY/WX    TMP DP  RH WIND       PRES   REMARKS
PLATTSBURGH    CLOUDY    70  65  84 S3        29.72S
SARANAC LAKE   MOCLDY    63  63 100 SW9       29.78S
MASSENA        CLOUDY    71  67  87 SW6       29.71F
OGDENSBURG*    MOCLDY    70  67  90 SW6       29.72S
POTSDAM*       MOCLDY    70  70 100 SW8       29.72F
STARK FALLS*     N/A     68 N/A N/A SW6         N/A
WATERTOWN      CLOUDY    72  68  87 SW10G17   29.74F
FT DRUM        CLOUDY    70  66  88 SW8       29.75S
ALBANY         PTCLDY    67  65  93 CALM      29.78S
GLENS FALLS    CLEAR     66  65  96 CALM      29.76S

$$
NHZ002-005-011-190900-
_____NEW HAMPSHIRE_____


CITY           SKY/WX    TMP DP  RH WIND       PRES   REMARKS
LEBANON        CLOUDY    65  64  97 NE3       29.77S
KEENE            N/A    N/A N/A N/A MISG        N/A
MT WASHINGTON  FOG       54  54 100 W26         N/A  VSB 0
PLYMOUTH       CLOUDY    61  60  96 CALM      29.79S
WHITEFIELD     CLOUDY    61  57  87 CALM      29.79F

$$

_____REGIONAL QUEBEC LOCATIONS_____


CITY           SKY/WX    TMP DP  RH WIND       PRES   REMARKS
MONTREAL       MOCLDY    68  66  94 SW3       29.69S
QUEBEC CITY    CLOUDY    63  59  88 NE13      29.75F
SHERBROOKE     CLOUDY    63  61  94 E5        29.75S

_____REGIONAL ONTARIO LOCATIONS_____


CITY           SKY/WX    TMP DP  RH WIND       PRES   REMARKS
OTTAWA         MOCLDY    68  66  94 S3        29.69F

______KEY______
VSB  - VISIBILITY IN MILES
WCI  - WIND CHILL INDEX
HX   - HEAT INDEX
$$
NNNN




USA.gov is the U.S. government's official web portal to all federal, state and local government web resources and services.